Time,TemperatureF,DewpointF,PressureIn,WindDirection,WindDirectionDegrees,WindSpeedMPH,WindSpeedGustMPH,Humidity,HourlyPrecipIn,Conditions,Clouds,dailyrainin,SoftwareType,DateUTC
2013-09-29 00:02:00,-999.0,-99.9,29.98,ENE,67,0.0,0.0,-999,-99.99,,,-99.99,,2013-09-29 04:02:00,
2013-09-29 00:14:00,75.0,70.0,29.98,ENE,67,0.0,0.0,84,0.00,,,0.00,,2013-09-29 04:14:00,
2013-09-29 00:24:00,75.0,70.0,29.98,ENE,67,0.0,0.0,84,0.00,,,0.00,,2013-09-29 04:24:00,
2013-09-29 00:54:00,74.0,69.0,29.98,ENE,66,0.0,0.0,85,0.00,,,0.00,,2013-09-29 04:54:00,
2013-09-29 01:14:00,74.0,70.0,29.98,ENE,65,0.0,0.0,86,0.00,,,0.00,,2013-09-29 05:14:00,
2013-09-29 01:22:00,74.0,70.0,29.97,ENE,65,0.0,0.0,86,0.00,,,0.00,,2013-09-29 05:22:00,
2013-09-29 01:53:00,73.0,69.0,29.96,ENE,65,0.0,0.0,87,0.00,,,0.00,,2013-09-29 05:53:00,
2013-09-29 02:13:00,73.0,69.0,29.97,ENE,65,0.0,0.0,88,0.00,,,0.00,,2013-09-29 06:13:00,
2013-09-29 02:22:00,73.0,69.0,29.96,NE,46,0.0,0.0,88,0.00,,,0.00,,2013-09-29 06:22:00,
2013-09-29 02:42:00,72.0,69.0,29.96,NE,46,0.0,0.0,89,0.00,,,0.00,,2013-09-29 06:42:00,
2013-09-29 02:52:00,72.0,69.0,29.96,ENE,59,0.0,0.0,89,0.00,,,0.00,,2013-09-29 06:52:00,
2013-09-29 03:11:00,72.0,69.0,29.95,ENE,59,0.0,0.0,90,0.00,,,0.00,,2013-09-29 07:11:00,
2013-09-29 03:22:00,72.0,69.0,29.95,ENE,59,0.0,0.0,90,0.00,,,0.00,,2013-09-29 07:22:00,
2013-09-29 03:43:00,72.0,69.0,29.95,NE,35,0.0,0.0,90,0.00,,,0.00,,2013-09-29 07:43:00,
2013-09-29 03:52:00,72.0,69.0,29.95,ENE,71,0.0,0.0,91,0.00,,,0.00,,2013-09-29 07:52:00,
2013-09-29 04:12:00,71.0,68.0,29.95,ENE,67,0.0,0.0,91,0.00,,,0.00,,2013-09-29 08:12:00,
2013-09-29 04:22:00,71.0,69.0,29.95,NE,46,0.0,0.0,92,0.00,,,0.00,,2013-09-29 08:22:00,
2013-09-29 04:42:00,71.0,69.0,29.95,NE,56,0.0,0.0,92,0.00,,,0.00,,2013-09-29 08:42:00,
2013-09-29 04:52:00,71.0,69.0,29.94,NE,42,0.0,0.0,92,0.00,,,0.00,,2013-09-29 08:52:00,
2013-09-29 05:11:00,71.0,69.0,29.95,NE,44,0.0,0.0,92,0.00,,,0.00,,2013-09-29 09:11:00,
2013-09-29 05:22:00,71.0,69.0,29.94,NNE,28,0.0,0.0,92,0.00,,,0.00,,2013-09-29 09:22:00,
2013-09-29 05:43:00,71.0,69.0,29.94,NE,40,0.0,0.0,92,0.00,,,0.00,,2013-09-29 09:43:00,
2013-09-29 05:54:00,71.0,69.0,29.95,NE,36,0.0,0.0,92,0.00,,,0.00,,2013-09-29 09:54:00,
2013-09-29 06:12:00,70.0,68.0,29.95,NE,56,0.0,0.0,92,0.00,,,0.00,,2013-09-29 10:12:00,
2013-09-29 06:23:00,70.0,68.0,29.95,NE,47,0.0,0.0,93,0.00,,,0.00,,2013-09-29 10:23:00,
2013-09-29 06:43:00,70.0,68.0,29.96,NE,53,0.0,0.0,93,0.00,,,0.00,,2013-09-29 10:43:00,
2013-09-29 06:53:00,70.0,68.0,29.96,NE,48,0.0,0.0,93,0.00,,,0.00,,2013-09-29 10:53:00,
2013-09-29 07:12:00,70.0,68.0,29.96,ENE,57,0.0,0.0,93,0.00,,,0.00,,2013-09-29 11:12:00,
2013-09-29 07:22:00,70.0,68.0,29.96,ENE,73,0.0,0.0,93,0.00,,,0.00,,2013-09-29 11:22:00,
2013-09-29 07:52:00,70.0,68.0,29.97,NE,38,0.0,0.0,93,0.00,,,0.00,,2013-09-29 11:52:00,
2013-09-29 08:12:00,70.0,68.0,29.97,NE,41,0.0,0.0,93,0.00,,,0.00,,2013-09-29 12:12:00,
2013-09-29 08:21:00,70.0,68.0,29.97,ENE,65,0.0,0.0,93,0.00,,,0.00,,2013-09-29 12:21:00,
2013-09-29 08:52:00,73.0,70.0,29.98,NNE,24,0.0,0.0,90,0.00,,,0.00,,2013-09-29 12:52:00,
2013-09-29 09:11:00,75.0,69.0,29.98,NNE,28,1.0,3.0,83,0.00,,,0.00,,2013-09-29 13:11:00,
2013-09-29 09:22:00,75.0,68.0,29.98,ENE,59,2.0,5.0,80,0.00,,,0.00,,2013-09-29 13:22:00,
2013-09-29 09:53:00,77.0,69.0,29.98,ENE,62,5.0,7.0,76,0.00,,,0.00,,2013-09-29 13:53:00,
2013-09-29 10:12:00,79.0,70.0,29.98,NE,46,6.0,8.0,74,0.00,,,0.00,,2013-09-29 14:12:00,
2013-09-29 10:22:00,80.0,70.0,29.98,East,99,5.0,7.0,72,0.00,,,0.00,,2013-09-29 14:22:00,
2013-09-29 10:43:00,82.0,70.0,29.98,ENE,57,3.0,6.0,67,0.00,,,0.00,,2013-09-29 14:43:00,
2013-09-29 10:52:00,82.0,69.0,29.98,ENE,69,3.0,5.0,66,0.00,,,0.00,,2013-09-29 14:52:00,
2013-09-29 11:12:00,83.0,70.0,29.98,ENE,76,5.0,7.0,64,0.00,,,0.00,,2013-09-29 15:12:00,
2013-09-29 11:22:00,82.0,69.0,29.98,East,98,4.0,7.0,64,0.00,,,0.00,,2013-09-29 15:22:00,
2013-09-29 11:45:00,84.0,68.0,29.98,ENE,65,6.0,8.0,58,0.00,,,0.00,,2013-09-29 15:45:00,
2013-09-29 11:55:00,84.0,69.0,29.98,ENE,72,2.0,3.0,61,0.00,,,0.00,,2013-09-29 15:55:00,
2013-09-29 12:14:00,85.0,68.0,29.98,NE,50,4.0,8.0,57,0.00,,,0.00,,2013-09-29 16:14:00,
2013-09-29 12:24:00,84.0,69.0,29.97,East,86,2.0,3.0,60,0.00,,,0.00,,2013-09-29 16:24:00,
2013-09-29 12:44:00,85.0,70.0,29.97,ESE,109,1.0,1.0,60,0.00,,,0.00,,2013-09-29 16:44:00,
2013-09-29 12:54:00,86.0,68.0,29.96,ESE,105,6.0,10.0,56,0.00,,,0.00,,2013-09-29 16:54:00,
2013-09-29 13:13:00,86.0,67.0,29.96,East,90,4.0,7.0,53,0.00,,,0.00,,2013-09-29 17:13:00,
2013-09-29 13:24:00,86.0,67.0,29.96,SE,127,3.0,5.0,54,0.00,,,0.00,,2013-09-29 17:24:00,
2013-09-29 13:43:00,87.0,65.0,29.95,ESE,121,2.0,3.0,48,0.00,,,0.00,,2013-09-29 17:43:00,
2013-09-29 13:52:00,88.0,66.0,29.95,NNE,13,0.0,4.0,48,0.00,,,0.00,,2013-09-29 17:52:00,
2013-09-29 14:13:00,87.0,67.0,29.94,NE,49,0.0,0.0,51,0.00,,,0.00,,2013-09-29 18:13:00,
2013-09-29 14:22:00,87.0,66.0,29.93,ENE,59,0.0,0.0,50,0.00,,,0.00,,2013-09-29 18:22:00,
2013-09-29 14:42:00,86.0,66.0,29.93,ESE,107,0.0,0.0,52,0.00,,,0.00,,2013-09-29 18:42:00,
2013-09-29 14:52:00,86.0,66.0,29.92,East,101,0.0,3.0,52,0.00,,,0.00,,2013-09-29 18:52:00,
2013-09-29 15:11:00,86.0,65.0,29.91,SW,234,0.0,0.0,49,0.00,,,0.00,,2013-09-29 19:11:00,
2013-09-29 15:22:00,87.0,65.0,29.91,ENE,62,1.0,4.0,48,0.00,,,0.00,,2013-09-29 19:22:00,
2013-09-29 15:42:00,88.0,65.0,29.90,ESE,102,0.0,0.0,46,0.00,,,0.00,,2013-09-29 19:42:00,
2013-09-29 15:52:00,90.0,65.0,29.90,NNE,33,0.0,0.0,44,0.00,,,0.00,,2013-09-29 19:52:00,
2013-09-29 16:12:00,90.0,64.0,29.89,ENE,78,0.0,0.0,42,0.00,,,0.00,,2013-09-29 20:12:00,
2013-09-29 16:22:00,88.0,62.0,29.89,NNE,15,0.0,0.0,42,0.00,,,0.00,,2013-09-29 20:22:00,
2013-09-29 16:43:00,88.0,64.0,29.89,NE,39,0.0,0.0,45,0.00,,,0.00,,2013-09-29 20:43:00,
2013-09-29 16:52:00,89.0,64.0,29.88,ENE,63,0.0,0.0,44,0.00,,,0.00,,2013-09-29 20:52:00,
2013-09-29 17:12:00,88.0,64.0,29.88,East,82,0.0,0.0,45,0.00,,,0.00,,2013-09-29 21:12:00,
2013-09-29 17:22:00,88.0,63.0,29.88,East,80,0.0,1.0,43,0.00,,,0.00,,2013-09-29 21:22:00,
2013-09-29 17:44:00,86.0,64.0,29.89,NNE,22,0.0,4.0,48,0.00,,,0.00,,2013-09-29 21:44:00,
2013-09-29 17:55:00,87.0,63.0,29.88,NNE,18,0.0,0.0,45,0.00,,,0.00,,2013-09-29 21:55:00,
2013-09-29 18:14:00,86.0,64.0,29.88,East,99,0.0,5.0,48,0.00,,,0.00,,2013-09-29 22:14:00,
2013-09-29 18:24:00,86.0,64.0,29.89,NNE,25,0.0,0.0,48,0.00,,,0.00,,2013-09-29 22:24:00,
2013-09-29 18:53:00,85.0,64.0,29.89,NE,53,0.0,0.0,50,0.00,,,0.00,,2013-09-29 22:53:00,
2013-09-29 19:12:00,83.0,66.0,29.89,ENE,76,0.0,0.0,57,0.00,,,0.00,,2013-09-29 23:12:00,
2013-09-29 19:23:00,83.0,66.0,29.89,East,82,0.0,0.0,57,0.00,,,0.00,,2013-09-29 23:23:00,
2013-09-29 19:43:00,83.0,67.0,29.90,East,82,0.0,0.0,59,0.00,,,0.00,,2013-09-29 23:43:00,
2013-09-29 19:53:00,81.0,66.0,29.90,East,82,0.0,0.0,61,0.00,,,0.00,,2013-09-29 23:53:00,
2013-09-29 20:11:00,80.0,67.0,29.90,East,82,0.0,0.0,64,0.00,,,0.00,,2013-09-30 00:11:00,
2013-09-29 20:22:00,79.0,66.0,29.91,East,82,0.0,0.0,65,0.00,,,0.00,,2013-09-30 00:22:00,
2013-09-29 20:42:00,78.0,66.0,29.91,East,82,0.0,0.0,66,0.00,,,0.00,,2013-09-30 00:42:00,
2013-09-29 20:52:00,77.0,66.0,29.92,East,82,0.0,0.0,69,0.00,,,0.00,,2013-09-30 00:52:00,
2013-09-29 21:11:00,77.0,66.0,29.92,East,82,0.0,0.0,70,0.00,,,0.00,,2013-09-30 01:11:00,
2013-09-29 21:22:00,76.0,66.0,29.92,East,82,0.0,0.0,72,0.00,,,0.00,,2013-09-30 01:22:00,
2013-09-29 21:42:00,75.0,67.0,29.94,ENE,58,0.0,2.0,77,0.00,,,0.00,,2013-09-30 01:42:00,
2013-09-29 21:52:00,75.0,68.0,29.95,East,93,5.0,7.0,78,0.00,,,0.00,,2013-09-30 01:52:00,
2013-09-29 22:12:00,76.0,68.0,29.95,ENE,67,5.0,9.0,76,0.00,,,0.00,,2013-09-30 02:12:00,
2013-09-29 22:22:00,77.0,69.0,29.96,East,101,6.0,8.0,76,0.00,,,0.00,,2013-09-30 02:22:00,
2013-09-29 22:42:00,77.0,69.0,29.96,East,101,6.0,9.0,76,0.00,,,0.00,,2013-09-30 02:42:00,
2013-09-29 22:52:00,77.0,69.0,29.96,ESE,110,5.0,8.0,76,0.00,,,0.00,,2013-09-30 02:52:00,
2013-09-29 23:12:00,76.0,68.0,29.97,East,91,5.0,7.0,77,0.00,,,0.00,,2013-09-30 03:12:00,
2013-09-29 23:22:00,76.0,69.0,29.96,East,96,4.0,6.0,78,0.00,,,0.00,,2013-09-30 03:22:00,
2013-09-29 23:45:00,75.0,68.0,29.96,SSE,152,4.0,7.0,79,0.00,,,0.00,,2013-09-30 03:45:00,
2013-09-29 23:55:00,75.0,68.0,29.96,East,100,1.0,2.0,80,0.00,,,0.00,,2013-09-30 03:55:00,